Preview of NWS' New Version of Forecast
This preview is not operational and should not be used for support decisions.
Latest weather observations around

Merced Regional Airport (KMCE)

Using English Units (Switch to International System of Units)
Date/ Time (PST) Wind (mph) Vis. (mi) Weather Sky Cond. Temp (°F) Rel. Humidity Wind Chill (°F) Heat Index (°F) Pressure Precip. (in)
Air Dwpt 6 hour Altimeter (inHg) Sea level (inHg) 1 hr 3 hr 6 hr
Max Min
Dec 13 05:53 Calm 1.75 Fog/Mist CLR 39 39     100%     30.3 30.29      
Dec 13 05:33 SW 3 2.5 Fog/Mist CLR 40 39     97% 38   30.3        
Dec 13 04:53 SSW 3 4 Fog/Mist CLR 41 39     93% 39   30.29 30.29      
Dec 13 02:53 ESE 6 4 Fog/Mist CLR 42 41     96% 38   30.31 30.31      
Dec 13 01:53 E 7 4 Fog/Mist CLR 44 43     96% 40   30.31 30.31      
Dec 13 00:53 E 3 3 Fog/Mist CLR 42 41     96% 40   30.32        
Dec 12 23:53 E 6 3 Fog/Mist CLR 42 41     96% 38   30.32        
Dec 12 23:50 E 6 3 Fog/Mist CLR 43 39     87% 39   30.32        
Dec 12 23:31 E 5 2.5 Fog/Mist CLR 42 41     96% 39   30.32        
Dec 12 23:10 E 6 3 Fog/Mist CLR 44 42     93% 41   30.32        
Dec 12 23:02 E 6 2.5 Fog/Mist CLR 43 41     93% 39   30.32        
Dec 12 22:53 E 5 3 Fog/Mist CLR 43 42     97% 40   30.32 30.32      
Dec 12 22:11 ESE 7 3 Fog/Mist CLR 42 41     96% 38   30.32        
Dec 12 21:53 SE 5 2.5 Fog/Mist CLR 41 40     96% 38   30.32 30.32      
Dec 12 21:16 Calm 3 Fog/Mist CLR 44 42     93%     30.31        
Dec 12 20:53 SE 5 2 Fog/Mist CLR 41 41     100% 38   30.31 30.31      
Dec 12 20:41 SE 6 2.5 Fog/Mist CLR 42 42     100% 38   30.31        
Dec 12 19:53 Calm 3 Fog/Mist CLR 44 42     93%     30.31 30.3      
Dec 12 18:53 Calm 4 Fog/Mist CLR 47 44     90%     30.28 30.28      
Dec 12 17:53 SSE 3 5 Fog/Mist CLR 48 45     89% 47   30.26 30.26      
Dec 12 16:53 S 5 5 Haze CLR 51 46     83%     30.23 30.23      
Dec 12 14:53 WNW 6 7 Clear CLR 57 45     64%     30.21 30.21      
Dec 12 13:53 NNW 8 7 Mostly Clear FEW026 56 45     67%     30.21 30.21      
Notice The following observation data may not be complete
Dec 12 12:27     Mostly Cloudy BKN024          %     30.24        
Notice The following observation data may not be complete
Dec 12 11:53     Mostly Clear FEW020          %     30.26        
Dec 12 10:53 5 5 Haze FEW013 50 44     80%     30.27 30.27      
Dec 12 09:53 SSW 3 6 Haze CLR 49 43     80% 48   30.27 30.27      
Dec 12 08:53 Calm 6 Fog/Mist FEW034 45 43     93%     30.26 30.26      
Dec 12 07:53 Calm 5 Fog/Mist OVC031 44 41     89%     30.27 30.27      
Dec 12 07:33 Calm 6 Fog/Mist OVC031 41 39     93%     30.26        
Dec 12 06:53 Calm 8 Cloudy OVC028 41 39     93%     30.25 30.24      
Dec 12 06:33 Calm 7 Mostly Cloudy BKN028 40 39     97%     30.24        
Dec 12 05:53 Calm 9 Partly Cloudy SCT031 41 39     93%     30.23 30.23      
Dec 12 04:53 E 3 8 Clear CLR 40 38     93% 38   30.22 30.22      
Dec 12 03:53 E 3 6 Fog/Mist CLR 38 37     97% 36   30.22 30.22      
Dec 12 02:53 ESE 5 9 Clear CLR 39 38     96% 36   30.22 30.22      
Dec 12 01:53 E 5 9 Clear CLR 41 39     93% 38   30.24 30.24      
Dec 12 00:53 E 3 8 Clear CLR 42 39     89% 40   30.22 30.22      
Dec 11 23:53 E 3 8 Clear CLR 42 40     92% 40   30.22 30.22      
Dec 11 22:53 ESE 5 8 Clear CLR 41 39     93% 38   30.22 30.22      
Dec 11 21:53 E 5 8 Clear CLR 42 40     92% 39   30.22 30.22      
Dec 11 20:53 E 3 7 Clear CLR 45 41     86% 44   30.23 30.23      
Dec 11 19:53 E 3 6 Fog/Mist CLR 43 41     93% 41   30.21 30.21      
Dec 11 18:53 E 3 6 Fog/Mist CLR 46 43     89% 45   30.2 30.19      
Dec 11 17:53 ESE 3 6 Fog/Mist CLR 45 41     86% 44   30.19 30.19      
Dec 11 16:53 Calm 4 Haze CLR 53 45     74%     30.18 30.18      
Dec 11 15:53 S 5 7 Mostly Clear FEW029 55 44     66%     30.17 30.16      
Dec 11 14:53 ESE 5 7 Clear CLR 55 44     66%     30.16 30.16      
Dec 11 14:07 ESE 5 7 Partly Cloudy SCT029 54 44     69%     30.17        
Dec 11 13:53 E 5 7 Mostly Cloudy BKN028 54 44     69%     30.17 30.17      
Dec 11 12:53 SSE 5 6 Haze OVC024 54 44     69%     30.18 30.18      
Dec 11 12:01 S 7 6 Haze BKN023 55 46     72%     30.2        
Dec 11 11:53 S 7 6 Haze SCT023 54 46     74%     30.2 30.2      
Dec 11 10:53 SSE 7 5 Haze CLR 53 45     74%     30.22 30.22      
Dec 11 10:10 Calm 4 Fog/Mist SCT028 50 46     86%     30.22        
Dec 11 09:53 SSW 5 4 Fog/Mist BKN027 50 46     86%     30.22 30.22      
Dec 11 09:41 S 5 3 Fog/Mist BKN026 49 46     90% 47   30.22        
Dec 11 09:20 Calm 2 Fog/Mist OVC024 47 46     97%     30.22        
Dec 11 09:03 Calm 1.5 Fog/Mist OVC022 45 45     100%     30.21        
Dec 11 08:53 WSW 3 2.5 Fog/Mist OVC021 48 46     93% 47   30.21 30.21      
Dec 11 08:33 Calm 2 Fog/Mist OVC020 47 46     97%     30.21        
Dec 11 07:53 Calm 1.25 Fog/Mist OVC019 46 46     100%     30.2 30.19      
Dec 11 07:12 Calm 1.75 Fog/Mist OVC017 45 45     100%     30.19        
Dec 11 06:53 SSE 3 2 Fog/Mist OVC016 46 45     96% 45   30.19 30.19      
Dec 11 06:45 Calm 2 Fog/Mist OVC016 46 45     96%     30.19        
Dec 11 06:16 Calm 1.75 Fog/Mist OVC017 45 44     97%     30.19        
Dec 11 05:53 Calm 2 Fog/Mist BKN018 46 45     96%     30.19 30.19      
Dec 11 05:45 Calm 2.5 Fog/Mist BKN016 46 45     96%     30.19        
Dec 11 04:53 Calm 3 Fog/Mist OVC028 47 46     97%     30.19 30.18      
Dec 11 03:53 ESE 5 3 Fog/Mist OVC024 48 46     93% 46   30.18 30.18      
Dec 10 19:53 SSE 3 5 Fog/Mist OVC022 49 45     86% 48   30.18 30.18      
Dec 10 18:53 SE 3 5 Fog/Mist OVC021 48 45     89% 47   30.18 30.18      
Dec 10 17:53 ESE 5 5 Haze OVC021 49 44     83% 47   30.18 30.17      
Dec 10 16:53 E 3 4 Haze OVC021 50 44     80%     30.16 30.16      
Dec 10 15:53 Calm 4 Haze OVC020 50 44     80%     30.16 30.16      
Dec 10 14:53 N 6 4 Haze OVC017 50 43     77%     30.16 30.16      
Dec 10 13:53 NW 6 3 Haze OVC016 50 44     80%     30.16 30.16      
Dec 10 12:53 N 5 3 Haze OVC016 50 44     80%     30.19 30.19      
Dec 10 12:23 WNW 3 3 Fog/Mist OVC015 49 45     86% 48   30.21        
Dec 10 11:53 Calm 3 Haze OVC013 50 44     80%     30.22 30.22      
Dec 10 10:53 Calm 3 Fog/Mist OVC011 49 45     86%     30.27 30.27      
Dec 10 10:37 NNW 3 3 Fog/Mist OVC010 48 44     86% 47   30.27        
Dec 10 10:25 N 5 2.5 Fog/Mist OVC011 48 45     89% 46   30.27        
Dec 10 10:10 NNW 7 3 Fog/Mist OVC011 49 45     86% 46   30.27        
Dec 10 09:53 NNW 7 2.5 Fog/Mist OVC011 49 45     86% 46   30.26 30.26      
Dec 10 09:21 NW 5 2.5 Fog/Mist OVC011 48 45     89% 46   30.25        
Dec 10 08:53 WNW 7 3 Fog/Mist OVC011 48 44     86% 45   30.25 30.25      
Dec 10 08:42 NW 5 3 Fog/Mist OVC011 48 44     86% 46   30.25        
Dec 10 08:31 WNW 3 3 Fog/Mist OVC009 48 45     89% 47   30.25        
Dec 10 07:53 NNW 6 2.5 Fog/Mist OVC009 48 45     89% 45   30.23 30.23      
Dec 10 07:44 NW 7 2.5 Fog/Mist OVC009 48 45     89% 45   30.23        
Dec 10 06:53 NW 7 4 Fog/Mist OVC009 48 45     89% 45   30.22 30.22      
Dec 10 05:53 NNW 5 4 Fog/Mist OVC009 48 45     89% 46   30.22 30.22      
Dec 10 05:43 NW 6 4 Fog/Mist OVC009 48 45     89% 45   30.22        
Dec 10 04:53 WNW 6 4 Fog/Mist OVC011 48 45     89% 45   30.21 30.21      
Dec 10 03:53 Calm 3 Fog/Mist OVC010 48 46     93%     30.22 30.22      
Dec 10 02:53 WNW 3 3 Fog/Mist OVC012 48 46     93% 47   30.23 30.23      
Dec 10 01:53 Calm 3 Fog/Mist OVC013 48 46     93%     30.24 30.24      
Dec 10 00:53 Calm 4 Fog/Mist OVC013 49 46     90%     30.25 30.24      
Dec 09 23:53 Calm 5 Fog/Mist OVC013 49 45     86%     30.25 30.25      
Dec 09 22:53 W 5 4 Fog/Mist OVC014 49 46     90% 47   30.28 30.28      
Dec 09 21:53 Calm 4 Fog/Mist OVC014 49 46     90%     30.28 30.28      
Dec 09 21:46 Calm 4 Fog/Mist OVC014 48 46     93%     30.28        
Dec 09 20:53 Calm 4 Fog/Mist OVC015 48 46     93%     30.28 30.28      
Dec 09 20:05 WNW 5 4 Fog/Mist BKN016 47 45     93% 45   30.28        
Dec 09 19:53 W 5 4 Fog/Mist FEW016 47 45     93% 45   30.28 30.28      
Dec 09 18:53 NNW 5 4 Fog/Mist CLR 47 45     93% 45   30.26 30.26      
Dec 09 18:25 Calm 5 Haze SCT016 50 45     83%     30.28        
Dec 09 17:53 WSW 3 5 Fog/Mist OVC016 50 46     86%     30.28 30.28      
Dec 09 17:37 NW 6 5 Haze OVC015 51 46     83%     30.27        
Dec 09 16:53 NW 8 5 Haze OVC014 51 46     83%     30.28 30.28      
Dec 09 15:53 NNW 7 4 Haze OVC013 51 46     83%     30.28 30.28      
Dec 09 14:53 NW 5 4 Haze OVC014 51 46     83%     30.27 30.27      
Dec 09 13:53 Calm 4 Haze OVC012 51 46     83%     30.28 30.28      
Dec 09 12:53 Calm 3 Fog/Mist OVC011 50 46     86%     30.31 30.31      
Dec 09 11:53 SE 5 4 Fog/Mist OVC011 50 46     86%     30.33 30.33      
Dec 09 10:53 SSE 5 4 Fog/Mist OVC011 50 46     86%     30.36 30.36      
Dec 09 09:53 SSE 7 3 Fog/Mist OVC010 50 47     89%     30.36 30.36      
Dec 09 09:40 SSE 8 3 Fog/Mist OVC010 50 47     89%     30.36        
Dec 09 08:53 SE 9 2.5 Fog/Mist OVC011 49 47     93% 45   30.35 30.35      
Dec 09 08:30 SE 11 3 Fog/Mist OVC011 49 46     90% 44   30.34        
Dec 09 08:23 SE 8 2.5 Fog/Mist OVC011 49 47     93% 45   30.34        
Dec 09 08:07 ESE 8 3 Fog/Mist OVC011 49 46     90% 45   30.34        
Dec 09 07:53 SE 7 2.5 Fog/Mist OVC011 49 47     93% 46   30.34 30.34      
Dec 09 07:34 SSE 5 2.5 Fog/Mist OVC011 49 47     93% 47   30.34        
Dec 09 06:53 SE 3 4 Fog/Mist OVC011 49 47     93% 48   30.33 30.33      
Dec 09 05:53 SE 5 4 Fog/Mist OVC011 49 47     93% 47   30.33 30.32      
Dec 09 04:53 SSE 3 4 Fog/Mist OVC013 50 47     89%     30.32 30.32      
Dec 09 03:53 SE 3 4 Fog/Mist OVC014 49 47     93% 48   30.32 30.32      
Dec 09 03:33 SSE 3 4 Fog/Mist OVC014 49 47     93% 48   30.33        
Dec 09 02:53 Calm 3 Fog/Mist OVC015 48 47     96%     30.34 30.34      
Dec 09 01:53 ENE 5 3 Fog/Mist OVC017 48 46     93% 46   30.35 30.35      
Dec 09 01:43 ENE 5 3 Fog/Mist OVC017 47 47     100% 45   30.35        
Dec 09 00:53 E 5 2 Fog/Mist OVC019 45 45     100% 43   30.35 30.35      
Dec 09 00:33 Calm 1.25 Fog/Mist OVC019 45 44     97%     30.35        
Dec 09 00:16 Calm 0.5 Fog SCT002 OVC020 44 44     100%     30.35        
Dec 09 00:08 Calm 0.25 Fog BKN002 OVC020 43 43     100%     30.34        
Dec 08 23:53 Calm 0.25 Fog VV001 43 43     100%     30.34 30.34      
Dec 08 23:32 ESE 5 0.25 Fog VV001 43 43     100% 40   30.34        
Dec 08 22:53 Calm 0.25 Fog VV002 43 43     100%     30.34 30.34      
Dec 08 21:53 ENE 5 0.25 Fog VV002 44 44     100% 41   30.33 30.32      
Dec 08 20:53 E 3 0.25 Fog VV002 44 44     100% 43   30.31 30.31      
Dec 08 19:53 Calm 0.25 Fog VV002 45 45     100%     30.32 30.32      
Dec 08 19:43 WSW 3 0.25 Fog VV002 45 45     100% 44   30.32        
Dec 08 19:23 Calm 0.25 Fog VV001 46 46     100%     30.31        
Dec 08 18:53 Calm 0.25 Fog VV002 46 46     100%     30.31 30.32      
Dec 08 18:41 Calm 0.25 Fog VV002 46 46     100%     30.31        
Dec 08 17:53 Calm 0.25 Fog VV001 48 48     100%     30.3 30.3      
Dec 08 17:31 Calm 0.25 Fog VV001 48 48     100%     30.3        
Dec 08 16:53 SSW 3 0.25 Fog BKN002 OVC110 48 48     100% 47   30.3 30.3      
Dec 08 15:53 SW 3 0.25 Fog OVC002 50 50     100%     30.3 30.3      
Dec 08 15:31 SW 3 0.5 Fog OVC002 50 50     100%     30.3        
Dec 08 15:22 S 3 0.25 Fog OVC002 50 50     100%     30.3        
Dec 08 15:02 SSW 3 0.5 Fog OVC002 50 50     100%     30.3        
Dec 08 14:53 W 3 0.25 Fog OVC002 50 50     100%     30.3 30.3      
Dec 08 13:53 Calm 0.75 Fog/Mist OVC002 49 49     100%     30.3 30.3      
Dec 08 13:44 WSW 3 0.5 Fog OVC002 49 49     100% 48   30.3        
Dec 08 13:25 SSW 3 0.25 Fog OVC002 49 49     100% 48   30.31        
Dec 08 12:53 SW 3 0.75 Fog/Mist OVC002 49 49     100% 48   30.32 30.32      
Dec 08 12:44 SSW 3 0.75 Fog/Mist OVC002 49 49     100% 48   30.32        
Dec 08 11:53 3 0.25 Fog VV002 48 48     100% 47   30.33 30.33      
Dec 08 10:53 Calm 0.25 Fog VV002 47 47     100%     30.35 30.35      
Dec 08 09:53 Calm 0.25 Fog VV002 44 44     100%     30.36 30.37      
Dec 08 08:53 Calm 0.25 Clear   43 43     100%     30.35 30.35      
Dec 08 07:53 Calm 0.25 Fog VV002 41 41     100%     30.34 30.33      
Dec 08 06:53 Calm 0.25 Fog VV002 39 39     100%     30.32 30.32      
Dec 08 06:42 Calm 0.25 Fog VV003 40 39     97%     30.32        
Dec 08 06:18 Calm 0.75 Fog/Mist VV004 40 40     100%     30.32        
Dec 08 06:11 Calm 1 Fog/Mist VV005 40 40     100%     30.32        
Dec 08 05:53 Calm 0.25 Fog VV005 40 39     97%     30.31 30.32      
Dec 08 05:50 Calm 0.5 Fog VV005 39 39     100%     30.31        
Dec 08 05:22 Calm 0.25 Fog VV005 40 39     97%     30.31        
Dec 08 05:13 Calm 0.75 Fog/Mist VV012 40 39     97%     30.31        
Dec 08 05:11 Calm 1.25 Fog/Mist SCT011 40 39     97%     30.31        
Dec 08 05:04 Calm 1 Fog/Mist VV011 40 40     100%     30.31        
Dec 08 04:53 Calm 0.25 Fog VV011 40 40     100%     30.31 30.31      
Dec 08 04:42 Calm 0.25 Fog VV010 41 40     96%     30.32        
Dec 08 04:00 Calm 0.5 Fog CLR 41 41     100%     30.31        
Dec 08 03:53 Calm 1 Fog/Mist CLR 41 41     100%     30.31 30.31      
Dec 08 03:06 Calm 1.75 Fog/Mist CLR 43 43     100%     30.32        
Dec 08 02:53 ENE 3 3 Fog/Mist CLR 45 43     93% 44   30.32 30.32      
Dec 08 02:43 Calm 2.5 Fog/Mist FEW024 44 43     96%     30.31        
Dec 08 01:53 E 5 3 Fog/Mist CLR 45 44     97% 43   30.3 30.3      
Dec 08 01:48 E 5 3 Fog/Mist CLR 45 43     93% 42   30.3        
Dec 08 01:33 E 3 2.5 Fog/Mist CLR 44 43     96% 43   30.29        
Dec 08 01:05 E 5 3 Fog/Mist CLR 42 42     100% 39   30.28        
Dec 08 00:53 ESE 6 2.5 Fog/Mist CLR 41 41     100% 37   30.28 30.28      
Dec 07 23:53 E 3 2.5 Fog/Mist SCT022 43 43     100% 41   30.28 30.28      
Dec 07 23:43 Calm 2.5 Fog/Mist BKN022 43 42     97%     30.28        
Dec 07 23:20 Calm 2.5 Fog/Mist CLR 42 41     96%     30.28        
Dec 07 22:53 E 3 4 Fog/Mist CLR 45 45     100% 44   30.28 30.27      
Dec 07 22:11 E 5 3 Fog/Mist CLR 44 44     100% 41   30.26        
Dec 07 22:00 E 3 2.5 Fog/Mist CLR 43 42     97% 41   30.26        
Dec 07 21:53 E 5 1.75 Fog/Mist CLR 41 41     100% 38   30.25 30.25      
Dec 07 21:25 Calm 2.5 Fog/Mist CLR 47 45     93%     30.25        
Dec 07 21:17 Calm 3 Fog/Mist CLR 46 44     93%     30.25        
Dec 07 21:10 Calm 2.5 Fog/Mist CLR 46 45     96%     30.25        
Dec 07 20:53 Calm 4 Fog/Mist CLR 47 46     97%     30.24 30.24      
Dec 07 20:43 Calm 3 Fog/Mist CLR 46 46     100%     30.24        
Dec 07 20:00 Calm 1.25 Fog/Mist CLR 48 48     100%     30.23        
Dec 07 19:53 Calm 0.75 Fog/Mist CLR 48 48     100%     30.23 30.23      
Dec 07 19:46 Calm 0.25 Fog CLR 48 47     96%     30.22        
Dec 07 19:18 Calm 0.75 Fog/Mist CLR 47 47     100%     30.22        
Dec 07 18:53 ESE 3 2 Fog/Mist CLR 46 46     100% 45   30.21 30.21      
Dec 07 17:53 Calm 4 Fog/Mist CLR 51 49     92%     30.21 30.21      
Dec 07 16:53 Calm 5 Fog/Mist CLR 54 50     86%     30.19 30.19      
Dec 07 15:53 SE 5 6 Haze CLR 56 51     84%     30.18 30.18      
Dec 07 14:53 3 10 Clear CLR 58 48     70%     30.16 30.16      
Dec 07 13:53 Calm 9 Clear CLR 57 49     74%     30.16 30.15      
Dec 07 12:53 Calm 5 Fog/Mist CLR 54 51     90%     30.16 30.16      
Dec 07 12:31 SSW 3 4 Fog/Mist SCT006 53 50     89%     30.17        
Dec 07 12:04 Calm 3 Fog/Mist OVC005 50 50     100%     30.17        
Dec 07 11:53 WNW 5 2.5 Fog/Mist OVC004 50 50     100%     30.18 30.18      
Dec 07 11:49 WNW 5 2 Fog/Mist OVC003 50 50     100%     30.18        
Dec 07 11:28 W 5 1.25 Fog/Mist OVC002 50 50     100%     30.18        
Dec 07 11:02 Calm 0.5 Fog OVC002 50 50     100%     30.18        
Dec 07 10:53 3 0.25 Fog OVC002 50 50     100%     30.18 30.18      
Dec 07 09:53 ENE 3 0.25 Fog VV002 49 49     100% 48   30.19 30.19      
Dec 07 08:53 Calm 0.25 Fog VV002 47 47     100%     30.17 30.17      
Dec 07 07:53 NE 3 0.25 Fog VV002 46 46     100% 45   30.15 30.15      
Dec 07 06:53 E 3 0.25 Fog VV002 46 46     100% 45   30.12 30.12      
Dec 07 05:53 Calm 0.25 Fog VV002 45 45     100%     30.1 30.1      
Dec 07 04:53 S 5 0.25 Fog VV002 46 46     100% 44   30.09 30.09      
Dec 07 03:53 SE 6 0.25 Fog VV002 48 48     100% 45   30.07 30.06      
Dec 07 02:53 S 3 0.25 Fog VV002 47 47     100% 46   30.07 30.07      
Dec 07 02:16 Calm 0.25 Fog VV002 47 47     100%     30.06        
Dec 07 01:53 E 3 0.25 Fog VV001 47 47     100% 46   30.06 30.06      
Dec 07 01:50 E 3 0.25 Fog VV001 46 46     100% 45   30.06        
Dec 07 01:11 E 3 0.25 Fog VV002 46 46     100% 45   30.05        
Dec 07 00:01 Calm 0.25 Fog VV001 44 44     100%     30.05        
Dec 06 23:53 Calm 0.25 Fog VV002 43 43     100%     30.05 30.05      
Dec 06 23:11 Calm 0.25 Fog VV003 45 45     100%     30.03        
Dec 06 22:53 Calm 0.75 Fog/Mist CLR 44 44     100%     30.04 30.03      
Dec 06 22:40 Calm 1 Fog/Mist CLR 44 44     100%     30.03        
Dec 06 22:31 Calm 2 Fog/Mist FEW005 47 46     97%     30.03        
Dec 06 22:26 Calm 1 Fog/Mist VV005 46 46     100%     30.02        
Dec 06 22:19 Calm 0.25 Fog VV004 46 46     100%     30.02        
Dec 06 22:12 Calm 0.25 Fog VV005 46 46     100%     30.02        
Dec 06 21:53 Calm 0.25 Fog VV004 47 46     97%     30.01 30.01      
Dec 06 21:50 Calm 0.25 Fog VV005 46 46     100%     30.01        
Dec 06 21:29 Calm 0.25 Fog CLR 47 46     97%     30        
Dec 06 21:20 Calm 0.75 Fog/Mist FEW030 47 46     97%     30        
Dec 06 21:02 Calm 2.5 Fog/Mist SCT030 49 49     100%     30        
Dec 06 20:53 Calm 3 Fog/Mist FEW030 49 48     97%     30 30      
Dec 06 20:09 NE 3 3 Fog/Mist CLR 47 46     97% 46   29.98        
Dec 06 20:01 Calm 2.5 Fog/Mist CLR 49 49     100%     29.98        
Dec 06 19:53 Calm 1.75 Fog/Mist CLR 48 48     100%     29.98 29.98      
Dec 06 19:39 Calm 1 Fog/Mist FEW085 48 48     100%     29.98        
Dec 06 19:27 Calm 2.5 Fog/Mist BKN085 49 49     100%     29.97        
Dec 06 19:19 Calm 1.75 Fog/Mist SCT085 50 50     100%     29.97        
Dec 06 19:03 SE 3 2 Fog/Mist CLR 49 49     100% 48   29.97        
Dec 06 18:53 SSE 3 4 Fog/Mist CLR 50 49     96%     29.97 29.97      
Dec 06 18:46 Calm 3 Fog/Mist CLR 50 49     96%     29.97        
Dec 06 18:37 Calm 2.5 Fog/Mist CLR 50 49     96%     29.97        
Dec 06 17:53 SE 5 5 Fog/Mist CLR 49 49     100% 47   29.95 29.95      
Dec 06 16:53 E 6 10 Clear CLR 54 50     86%     29.94 29.94      
Dec 06 15:53 Calm 10 Cloudy OVC070 58 50     75%     29.94 29.94      
Dec 06 14:53 WSW 3 10 Cloudy OVC070 58 50     75%     29.93 29.93      
Dec 06 14:07 Calm 10 Cloudy SCT021 OVC075 58 51     78%     29.93        
Dec 06 13:53 W 3 10 Cloudy BKN020 OVC075 58 51     78%     29.92 29.92      
Dec 06 13:28 Calm 10 Cloudy BKN020 OVC065 57 50     77%     29.93        
Dec 06 12:53 3 10 Cloudy OVC065 56 50     80%     29.93 29.93      
Dec 06 12:31 3 10 Cloudy SCT016 OVC065 56 50     80%     29.93        
Dec 06 12:24 W 5 10 Cloudy BKN016 OVC065 56 50     80%     29.93        
Dec 06 12:07 Calm 10 Cloudy SCT016 OVC065 56 50     80%     29.93        
Dec 06 11:53 3 10 Cloudy BKN014 OVC065 56 51     84%     29.94 29.93      
Dec 06 11:03 Calm 9 Cloudy OVC011 54 50     86%     29.95        
Dec 06 10:53 ENE 3 9 Cloudy OVC009 53 50     89%     29.95 29.95      
Dec 06 10:23 N 6 8 Mostly Cloudy BKN008 BKN065 54 50     86%     29.95        
Dec 06 10:02 N 8 8 Mostly Cloudy FEW007 BKN065 52 49     89%     29.95        
Dec 06 09:53 N 8 8 Mostly Cloudy BKN065 52 49     89%     29.95 29.95      
Dec 06 08:53 NNW 7 8 Mostly Cloudy BKN070 50 48     93%     29.94 29.94      
Dec 06 07:53 NNW 6 4 Fog/Mist OVC075 48 47     96% 45   29.93 29.93      
Dec 06 07:32 NW 6 3 Fog/Mist OVC070 48 47     96% 45   29.92        
Dec 06 07:23 WNW 5 2.5 Fog/Mist OVC070 48 47     96% 46   29.92        
Dec 06 06:53 Calm 4 Fog/Mist FEW004 BKN070 48 47     96%     29.92 29.92      
Dec 06 06:35 WNW 5 4 Fog/Mist SCT004 BKN075 48 48     100% 46   29.92        
Dec 06 05:53 NW 6 5 Fog/Mist BKN075 49 48     97% 46   29.91 29.91      
Dec 06 05:34 NW 8 5 Fog/Mist SCT005 OVC080 49 48     97% 45   29.9        
Dec 06 04:53 NW 8 4 Fog/Mist OVC004 50 49     96%     29.9 29.9      
Dec 06 04:04 NW 7 3 Fog/Mist BKN004 OVC070 50 50     100%     29.9        
Dec 06 03:53 NW 7 3 Fog/Mist SCT004 OVC070 50 50     100%     29.9 29.9     0
Dec 06 02:53 NNW 5 3 Fog/Mist FEW005 BKN050 OVC070 51 50     96%     29.9 29.9      
Dec 06 02:11 N 5 3 Fog/Mist SCT004 OVC050 51 50     96%     29.9        
Dec 06 01:53 N 5 4 Fog/Mist OVC050 51 50     96%     29.9 29.9      
Dec 06 00:53 N 3 4 Fog/Mist FEW044 OVC060 51 51     100%     29.9 29.91 0 0  
Dec 06 00:30 N 5 3 Fog/Mist FEW044 OVC065 51 51     100%     29.9   0    
Dec 06 00:16 N 5 2.5 Fog/Mist OVC065 51 51     100%     29.91   0    
Dec 06 00:08 N 5 3 Fog/Mist FEW050 BKN060 OVC100 51 51     100%     29.91   0    
Dec 05 23:53 N 5 2.5 Light Rain and Fog/Mist BKN046 BKN060 OVC100 52 51     97%     29.91 29.91 0    
Dec 05 23:26 NW 5 2.5 Fog/Mist OVC042 51 51     100%     29.91        
Dec 05 22:53 NW 3 4 Fog/Mist OVC050 52 51     97%     29.91 29.91      
Dec 05 21:53 Calm 6 Fog/Mist OVC043 52 51     97%     29.9 29.9     0
Dec 05 20:53 Calm 5 Fog/Mist OVC036 52 52     100%     29.89 29.89      
Dec 05 19:53 Calm 5 Fog/Mist SCT045 OVC070 52 52     100%     29.88 29.88 0    
Dec 05 18:53 NW 3 6 Fog/Mist FEW055 BKN095 BKN110 52 51     97%     29.87 29.87 0 0  
Dec 05 17:53 Calm 10 Cloudy BKN070 OVC090 54 52     93%     29.86 29.86 0    
Dec 05 16:53 Calm 6 Light Rain and Fog/Mist OVC070 54 51     90%     29.85 29.85 0    
Dec 05 15:53 NE 3 10 Cloudy OVC060 55 52     89%     29.85 29.84     0
Dec 05 14:53 N 9 8 Cloudy BKN044 OVC055 53 51     93%     29.84 29.83 0    
Dec 05 13:53 SSE 7 9 Cloudy OVC047 55 49     80%     29.86 29.85      
Dec 05 12:53 NE 5 10 Cloudy OVC055 56 48     75%     29.86 29.86   0  
Dec 05 11:53 ESE 6 10 Cloudy OVC065 54 48     80%     29.89 29.88      
Dec 05 10:53 SE 7 8 Cloudy BKN041 BKN049 OVC060 53 47     80%     29.91 29.91 0    
Dec 05 09:53 E 8 10 Cloudy OVC055 54 45     72%     29.92 29.92     0
Dec 05 08:53 SE 7 10 Cloudy OVC050 51 45     79%     29.91 29.91      
Dec 05 07:53 Calm 9 Cloudy BKN047 OVC055 50 46     86%     29.9 29.9 0    
Dec 05 06:53 SE 8 10 Cloudy OVC065 51 44     77%     29.9 29.9      
Dec 05 05:53 Calm 10 Cloudy BKN070 OVC080 51 46     83%     29.88 29.88      
Dec 05 04:53 NNE 5 7 Cloudy OVC070 50 46     86%     29.88 29.88      
Dec 05 03:53 WNW 6 8 Cloudy OVC060 50 46     86%     29.88 29.88      
Dec 05 02:53 NE 3 7 Cloudy OVC075 50 46     86%     29.89 29.89      
Dec 05 01:53 NW 6 7 Cloudy BKN075 OVC095 50 46     86%     29.9 29.9      
Dec 05 00:53 Calm 8 Cloudy OVC090 50 46     86%     29.91 29.91      
Dec 04 23:53 E 5 7 Cloudy OVC085 51 46     83%     29.91 29.91      
Dec 04 22:53 ENE 6 7 Cloudy OVC070 50 46     86%     29.93 29.93      
Dec 04 21:53 S 3 4 Fog/Mist OVC075 48 47     96% 47   29.93 29.93      
Dec 04 20:53 S 7 4 Fog/Mist OVC110 49 47     93% 46   29.95 29.95      
Dec 04 19:53 SE 3 6 Fog/Mist FEW120 50 46     86%     29.93 29.93      
Dec 04 18:53 NW 3 6 Fog/Mist FEW120 50 46     86%     29.93 29.93      
Dec 04 17:53 W 6 6 Fog/Mist OVC110 50 47     89%     29.94 29.94      
Dec 04 16:53 Calm 10 Mostly Cloudy BKN100 BKN120 53 40     61%     29.94 29.93      
Dec 04 15:53 E 5 10 Clear CLR 56 39     53%     29.94 29.94      
Dec 04 14:53 NNE 5 10 Partly Cloudy SCT110 56 45     67%     29.94 29.94      
Dec 04 13:53 NW 6 10 Mostly Clear FEW120 53 46     77%     29.96 29.96      
Dec 04 12:53 N 7 8 Cloudy OVC120 52 45     77%     29.97 29.97      
Dec 04 11:53 NW 7 10 Cloudy OVC110 53 46     77%     30.01 30.01      
Dec 04 10:53 ESE 8 10 Partly Cloudy SCT120 55 42     62%     30.01 30.01      
Dec 04 09:53 ESE 8 10 Clear CLR 51 44     77%     30.03 30.03      
Dec 04 08:53 ESE 10 10 Clear CLR 50 44     80%     30.04 30.04      
Dec 04 07:53 ESE 8 10 Clear CLR 49 43     80% 45   30.04 30.04      
Dec 04 06:53 ESE 9 10 Mostly Cloudy BKN110 48 43     83% 44   30.05 30.04      
Dec 04 05:53 ESE 6 10 Mostly Cloudy BKN120 46 43     89% 43   30.05 30.05      
Dec 04 04:53 E 7 7 Clear CLR 46 43     89% 42   30.04 30.04      
Dec 04 03:53 E 5 6 Fog/Mist FEW110 47 44     90% 45   30.06 30.06      
Dec 04 02:53 Calm 5 Fog/Mist SCT120 47 45     93%     30.08 30.08      
Dec 04 01:53 SW 3 5 Fog/Mist CLR 47 45     93% 46   30.09 30.09      
Dec 04 00:53 Calm 6 Fog/Mist CLR 47 44     90%     30.08 30.08      
Dec 03 23:53 S 3 10 Mostly Clear FEW110 47 44     90% 46   30.09 30.09      
Dec 03 22:53 ESE 5 5 Fog/Mist CLR 46 44     93% 44   30.11 30.11      
Dec 03 21:53 Calm 8 Clear CLR 48 44     86%     30.11 30.11      
Dec 03 20:53 Calm 8 Clear CLR 49 44     83%     30.12 30.12      
Dec 03 19:53 WNW 3 9 Clear CLR 50 44     80%     30.12 30.12      
Dec 03 18:53 Calm 9 Clear CLR 50 44     80%     30.12 30.11      
Dec 03 17:53 W 3 9 Clear CLR 52 43     71%     30.12 30.12      
Dec 03 16:53 Calm 8 Clear CLR 53 45     74%     30.12 30.12      
Dec 03 15:53 W 5 9 Clear CLR 55 43     64%     30.13 30.13      
Dec 03 14:53 3 10 Clear CLR 56 42     60%     30.14 30.14      
Dec 03 13:53 ENE 5 10 Clear CLR 57 43     59%     30.14 30.14      
Dec 03 12:53 S 3 10 Clear CLR 55 43     64%     30.15 30.15      
Dec 03 11:53 SSW 3 10 Clear CLR 54 44     69%     30.18 30.18      
Dec 03 10:53 3 10 Clear CLR 52 43     71%     30.2 30.2      
Dec 03 09:53 ESE 5 10 Clear CLR 50 42     74%     30.21 30.2      
Dec 03 08:53 Calm 10 Clear CLR 47 40     76%     30.23 30.23      
Dec 03 07:53 Calm 10 Clear CLR 41 38     89%     30.21 30.21      
Dec 03 06:53 Calm 10 Clear CLR 40 38     93%     30.21 30.21      
Dec 03 05:53 Calm 10 Clear CLR 40 39     97%     30.19 30.19      
Dec 03 04:53 Calm 10 Clear CLR 41 39     93%     30.18 30.18      
Dec 03 03:53 SE 3 10 Clear CLR 40 39     97% 38   30.18 30.18      
Dec 03 01:53 Calm 2 Fog/Mist CLR 38 38     100%     30.2 30.2      
Dec 03 00:53 Calm 8 Clear CLR 41 40     96%     30.19 30.19      
Dec 02 23:53 Calm 10 Clear CLR 41 41     100%     30.19 30.19      
Dec 02 22:53 Calm 8 Clear CLR 42 41     96%     30.19 30.19      
Dec 02 21:53 Calm 10 Clear CLR 45 42     90%     30.17 30.17      
Dec 02 20:53 N 3 10 Clear CLR 48 43     83% 47   30.16 30.16      
Dec 02 19:53 Calm 10 Clear CLR 48 43     83%     30.16 30.16      
Dec 02 18:53 Calm 10 Clear CLR 50 42     74%     30.16 30.16      
Dec 02 17:53 WNW 3 10 Clear CLR 50 42     74%     30.15 30.14      
Dec 02 16:53 NW 6 10 Clear CLR 51 42     71%     30.13 30.13      
Dec 02 15:53 NNW 7 10 Clear CLR 54 41     61%     30.11 30.11      
Dec 02 14:53 NW 9 10 Clear CLR 56 40     55%     30.1 30.1      
Dec 02 13:53 NW 7 10 Clear CLR 56 41     57%     30.11 30.11      
Dec 02 12:53 N 7 10 Clear CLR 56 39     53%     30.11 30.11      
Dec 02 11:53 NW 8 10 Clear CLR 55 40     57%     30.13 30.13      
Dec 02 10:53 WNW 7 10 Clear CLR 52 40     63%     30.15 30.15      
Dec 02 09:53 N 6 10 Clear CLR 49 42     77% 46   30.15 30.15      
Dec 02 08:53 NNE 3 10 Clear CLR 44 43     96% 43   30.13 30.13      
Dec 02 08:29 Calm 3 Fog/Mist SCT001 41 41     100%     30.12        
Dec 02 08:27 Calm 2 Fog/Mist BKN001 41 40     96%     30.12        
Dec 02 08:03 Calm 0.5 Fog VV001 38 38     100%     30.12        
Dec 02 07:53 Calm 0.25 Fog VV001 37 37     100%     30.11 30.11      
Dec 02 07:06 Calm 0.25 Fog VV001 37 36     96%     30.1        
Dec 02 06:53 SSW 3 0.5 Fog VV001 37 36     96% 35   30.09 30.09      
Dec 02 06:48 Calm 0.75 Fog/Mist VV001 37 37     100%     30.09        
Dec 02 06:23 Calm 0.25 Fog VV001 38 38     100%     30.08        
Dec 02 05:53 Calm 0.25 Fog VV002 39 39     100%     30.07 30.07      
Dec 02 05:45 Calm 0.25 Fog VV002 39 39     100%     30.07        
Dec 02 05:07 ESE 3 0.25 Fog VV001 38 37     97% 36   30.05        
Dec 02 04:53 Calm 0.75 Fog/Mist VV002 40 40     100%     30.05 30.04      
Dec 02 04:42 Calm 0.5 Fog VV002 38 38     100%     30.04        
Dec 02 04:31 Calm 0.5 Fog CLR 41 40     96%     30.04        
Dec 02 04:20 Calm 1.75 Fog/Mist CLR 41 41     100%     30.04        
Dec 02 03:53 Calm 6 Fog/Mist CLR 43 42     97%     30.04 30.04      
Dec 02 02:53 Calm 10 Mostly Clear FEW045 44 43     96%     30.04 30.04      
Dec 02 01:53 Calm 10 Cloudy OVC044 45 44     97%     30.04 30.04      
Dec 02 00:53 Calm 10 Cloudy OVC037 47 45     93%     30.03 30.03      
Dec 01 23:53 ESE 3 10 Cloudy OVC040 46 46     100% 45   30.03 30.02      
Dec 01 22:53 Calm 9 Partly Cloudy FEW035 SCT047 46 45     96%     30.02 30.02      
Dec 01 21:53 Calm 10 Cloudy SCT038 OVC060 48 46     93%     30.01 30.01     0
Dec 01 20:53 E 5 10 Cloudy SCT036 OVC045 48 46     93% 46   30 30      
Dec 01 19:53 Calm 10 Mostly Clear FEW045 47 45     93%     29.98 29.98      
Dec 01 18:53 Calm 10 Mostly Cloudy SCT055 BKN075 46 45     96%     29.98 29.98 0 0  
Dec 01 17:53 Calm 10 Mostly Cloudy SCT043 BKN060 BKN075 48 46     93%     29.97 29.97      
Dec 01 16:53 SE 7 10 Partly Cloudy FEW037 SCT050 48 45     89% 45   29.96 29.96      
Dec 01 15:53 SE 9 10 Clear CLR 51 47     86%     29.97 29.97     0
Dec 01 14:53 SE 8 10 Mostly Cloudy FEW060 BKN110 51 47     86%     29.97 29.97      
Dec 01 13:53 E 11 10 Partly Cloudy SCT008 50 49     96%     29.98 29.98 0    
Dec 01 13:46 E 11 10 Partly Cloudy SCT007 50 48     93%     29.97   0    
Dec 01 13:09 ESE 15 10 Mostly Cloudy SCT032 SCT055 BKN110 49 47     93% 43   29.98   0    
Dec 01 13:02 ESE 14 10 Mostly Cloudy FEW019 BKN028 BKN050 50 48     93%     29.98   0    
Dec 01 12:53 E 14 4 Light Rain and Fog/Mist FEW010 BKN038 OVC055 49 47     93% 44   29.98 29.98 0 0  
Dec 01 12:51 E 15 3 Rain and Fog/Mist FEW010 BKN027 OVC055 48 46     93% 42   29.98   0    
Dec 01 12:50 E 14 3 Rain and Fog/Mist FEW011 BKN036 OVC055 48 46     93% 43   29.98   0    
Dec 01 12:40   1.25 Heavy Rain and Fog/Mist FEW011 BKN029 OVC034 48 47     96%     30.01   0    
Dec 01 12:32   2.5 Rain and Fog/Mist FEW011 BKN029 OVC034 50 48     93%     30.02   0    
Dec 01 12:14 ESE 15 3 Light Rain and Fog/Mist SCT013 BKN028 OVC034 50 48     93%     29.99   0    
Dec 01 12:11 ESE 13 2.5 Light Rain and Fog/Mist SCT013 BKN028 OVC034 50 48     93%     29.99   0    
Dec 01 12:04 SE 11 1.75 Rain and Fog/Mist FEW010 BKN013 OVC036 50 47     89%     29.99   0    
Dec 01 11:53 ESE 9 4 Light Rain and Fog/Mist FEW010 BKN028 OVC036 50 48     93%     30 30 0    
Dec 01 10:53 ESE 13 10 Cloudy OVC033 49 46     90% 44   30.02 30.02      
Dec 01 09:53 SE 11 6 Fog/Mist BKN037 BKN045 OVC090 47 45     93% 42   30.05 30.04     0
Dec 01 08:53 ESE 9 4 Fog/Mist OVC040 46 44     93% 41   30.05 30.05 0    
Dec 01 07:53 ESE 8 7 Cloudy OVC050 45 44     97% 41   30.04 30.04      
Dec 01 06:53 ESE 6 10 Cloudy OVC070 45 44     97% 42   30.06 30.06      
Dec 01 05:53 SE 3 10 Cloudy BKN090 OVC110 43 42     97% 41   30.06 30.06      
Dec 01 04:53 SW 3 10 Mostly Cloudy BKN120 42 41     96% 40   30.06 30.06      
Dec 01 03:53 Calm 10 Clear CLR 40 39     97%     30.06 30.06      
Dec 01 02:53 Calm 8 Clear CLR 41 40     96%     30.06 30.06      
Dec 01 01:53 SW 3 10 Clear CLR 42 40     92% 40   30.07 30.07      
Dec 01 00:53 N 6 10 Clear CLR 45 42     90% 42   30.07 30.07      
Nov 30 23:53 N 3 9 Clear CLR 43 40     89% 41   30.09 30.09      
Nov 30 22:53 Calm 10 Clear CLR 45 42     90%     30.08 30.08      
Nov 30 21:53 Calm 10 Clear CLR 48 43     83%     30.08 30.08      
Nov 30 20:53 NW 5 10 Clear CLR 49 43     80% 47   30.08 30.08      
Nov 30 19:53 NW 8 10 Clear CLR 50 44     80%     30.07 30.06      
Nov 30 18:53 NNW 7 10 Clear CLR 50 44     80%     30.06 30.06      
Nov 30 17:53 NNW 6 10 Clear CLR 51 45     79%     30.05 30.04      
May 14 17:53 NW 5 10 Clear   79 48     34%   78 29.86 29.85      
May 13 21:53   10 Clear CLR 66 50     56%     29.92 29.92      
May 13 20:53 NNW 11 10 Clear CLR 69 51     53%     29.9 29.9      
May 12 18:53 WSW 10 10 Clear CLR 74 48     40%   73 29.8 29.8      
May 11 22:53 NW 11 10 Clear CLR 67 39     36%     29.69 29.68      
May 11 08:53 NW 13 10 Clear CLR 64 51     63%     29.8 29.8      
Jun 12 03:53 Calm 10 Clear CLR 51 43     74%     30.03 30.02      
Jun 12 02:53 NW 3 10 Clear CLR 49 43     80% 48   30.02 30.01      
Jun 10 15:53 WNW 14 10 Clear CLR 77 40     26%   76 29.86 29.86      
Jun 10 08:53 NW 17 10 Clear CLR 62 42     48%     29.94 29.93      
Jun 08 13:53 NNW 13 10 Cloudy OVC080 71 41     34%   69 30 29.99      
Jun 07 09:53 NNW 9 10 Clear CLR 78 40     26%   77 29.86 29.85      
Jun 07 06:53 NNW 3 10 Clear CLR 62 45     53%     29.84 29.84